Location: Jetmore
(38.0845°N, 99.8935°W)
Time: 21:38:30
(UTC+00:00)

Envisat - Pass Details

Date: 18 September 2021
Orbit: 764 x 766 km, 98.2° (Epoch: 15 October)

Event Time Altitude Azimuth Distance (km) Brightness Sun altitude
Rises 11:39:46 0° 15° (NNE) 3,237 6.6 -9.5°
Reaches altitude 10° 11:42:06 10° 17° (NNE) 2,307 5.9 -9.1°
Maximum altitude 11:47:10 71° 102° (ESE) 809 3.4 -8.1°
Drops below altitude 10° 11:52:12 10° 186° (S) 2,291 5.3 -7.1°
Sets 11:54:30 0° 188° (S) 3,213 6.1 -6.6°
